Powrót do katalogu

COSMOS 2219

AktywnyMilitariaLEO
NORAD 22219·PAYLOAD·🇷🇺 Russia

Wystrzelony Nov 17, 1992 z Baikonur Cosmodrome

Loading…

Następne Przeloty (najbliższe 24 godziny)

TLE

ŚwieżeSource: Space-Track

Epoka: Sep 14, 2026, 04:16 UTC

1 22219U 92076A   26257.17795908 -.00000211  00000-0 -85615-4 0  9993
2 22219  71.0635 344.0358 0020729 272.5165  87.3584 14.14113091745023

Śledź COSMOS 2219 w czasie rzeczywistym z AllMySat

Download on the App Store